Location: *
(48.8489°N, 2.3218°E)
Time: 19:27:52
(UTC+00:00)

SL-16 R/B - Pass Details

Date: 23 August 2019
Orbit: 842 x 846 km, 71.0° (Epoch: 17 September)

Event Time Altitude Azimuth Distance (km) Brightness Sun altitude
Rises 20:05:42 0° 335° (NNW) 3,417 6.4 -11.8°
Reaches altitude 10° 20:09:10 10° 356° (N) 2,480 5.2 -12.3°
Maximum altitude 20:12:39 16° 34° (NE) 2,064 4.2 -12.7°
Drops below altitude 10° 20:16:08 10° 73° (ENE) 2,474 4.3 -13.2°
Enters shadow 20:17:04 - 80° (E) 2,693 4.4 -13.3°
